Date String (YYYY-MM-DD hh:mm:ss) UTC,Instrument flags,Ambient pressure (hPa),Sample flow (lpm),Bypass flow (lpm),Sample temperature (°C),Ambient temperature (°C),ASC tube jacket temperature (°C),LED temperature (°C),Box temperature (°C),Sample RH (%),Span deviation,Mass concentration (μg/m³),Mass concentration (μg/m³),Mass concentration (μg/m³)
DateTimeUTC,F1_M11,P_M11,Q1_M11,Q2_M11,T1_M11,T2_M11,T3_M11,T4_M11,T5_M11,U1_M11,ZSPAN_M11,X0_M11,X2_M11,X1_M11
2022-06-23 18:00:00,,0826.2,5.01,0.00,28.9,27.8,00.0,37.6,30.9,12.8,0000.0,0014.29,0004.85,0003.79
2022-06-23 18:01:00,,0826.1,5.01,0.00,29.0,27.9,00.0,37.7,31.0,12.8,0000.0,0013.59,0004.88,0003.80
2022-06-23 18:02:00,,0826.2,5.01,0.00,29.0,27.5,00.0,37.6,30.9,12.4,0000.0,0013.49,0004.85,0003.79
2022-06-23 18:03:00,,0826.2,5.00,0.00,28.9,27.0,00.0,37.6,30.7,12.7,0000.0,0013.87,0004.86,0003.78
2022-06-23 18:04:00,,0826.2,5.00,0.00,28.9,26.9,00.0,37.6,30.7,12.9,0000.0,0014.00,0004.88,0003.80
2022-06-23 18:05:00,,0826.2,5.00,0.00,28.8,27.0,00.0,37.6,30.7,13.6,0000.0,0013.94,0004.90,0003.80
2022-06-23 18:06:00,,0826.2,5.00,0.00,28.8,27.2,00.0,37.6,30.7,13.5,0000.0,0014.67,0004.91,0003.81
2022-06-23 18:07:00,,0826.2,5.00,0.00,28.8,27.3,00.0,37.6,30.8,14.2,0000.0,0014.93,0004.94,0003.81
2022-06-23 18:08:00,,0826.2,5.00,0.00,28.9,27.5,00.0,37.6,30.8,13.9,0000.0,0014.69,0004.99,0003.83
2022-06-23 18:09:00,,0826.2,4.99,0.00,28.9,27.7,00.0,37.6,30.9,13.3,0000.0,0014.25,0004.98,0003.84
2022-06-23 18:10:00,,0826.1,5.00,0.00,28.9,27.9,00.0,37.6,30.9,13.5,0000.0,0014.92,0005.07,0003.87
2022-06-23 18:11:00,,0826.1,5.00,0.00,29.0,27.8,00.0,37.6,30.9,14.1,0000.0,0015.66,0005.13,0003.89
2022-06-23 18:12:00,,0826.1,5.00,0.00,28.9,27.2,00.0,37.6,30.8,14.2,0000.0,0016.08,0005.06,0003.88
2022-06-23 18:13:00,,0826.2,5.00,0.00,28.9,26.9,00.0,37.6,30.7,14.2,0000.0,0016.06,0005.07,0003.88
2022-06-23 18:14:00,,0826.2,5.00,0.00,28.8,26.9,00.0,37.6,30.7,14.1,0000.0,0015.67,0005.07,0003.88
2022-06-23 18:15:00,,0826.2,5.00,0.00,28.8,27.1,00.0,37.6,30.7,13.8,0000.0,0015.62,0005.03,0003.87
2022-06-23 18:16:00,,0826.2,4.99,0.00,28.8,27.2,00.0,37.6,30.7,13.5,0000.0,0015.81,0004.98,0003.89
2022-06-23 18:17:00,,0826.2,5.00,0.00,28.8,27.4,00.0,37.6,30.8,13.6,0000.0,0016.16,0005.02,0003.91
2022-06-23 18:18:00,,0826.2,5.00,0.00,28.9,27.6,00.0,37.6,30.8,13.8,0000.0,0016.25,0005.01,0003.94
2022-06-23 18:19:00,,0826.1,5.02,0.00,28.9,27.8,00.0,37.6,30.9,13.4,0000.0,0016.60,0005.04,0003.95
2022-06-23 18:20:00,,0826.2,5.00,0.00,28.9,27.8,00.0,37.6,30.9,13.5,0000.0,0017.06,0005.10,0003.97
2022-06-23 18:21:00,,0826.2,5.00,0.00,28.9,27.2,00.0,37.6,30.7,13.7,0000.0,0015.85,0005.10,0003.97
2022-06-23 18:22:00,,0826.2,5.00,0.00,28.8,26.8,00.0,37.5,30.6,13.5,0000.0,0015.10,0005.10,0003.98
2022-06-23 18:23:00,,0826.1,5.00,0.00,28.8,26.8,00.0,37.5,30.6,13.3,0000.0,0014.94,0005.14,0004.00
2022-06-23 18:24:00,,0826.1,4.99,0.00,28.8,27.0,00.0,37.5,30.6,13.6,0000.0,0014.50,0005.16,0004.03
2022-06-23 18:25:00,,0826.1,5.00,0.00,28.8,27.1,00.0,37.5,30.7,13.7,0000.0,0014.08,0005.14,0004.04
2022-06-23 18:26:00,,0826.1,5.00,0.00,28.8,27.3,00.0,37.6,30.7,14.6,0000.0,0014.14,0005.17,0004.06
2022-06-23 18:27:00,,0826.0,5.00,0.00,28.8,27.5,00.0,37.6,30.8,14.4,0000.0,0014.59,0005.24,0004.08
2022-06-23 18:28:00,,0826.0,4.99,0.00,28.9,27.7,00.0,37.6,30.9,14.0,0000.0,0015.48,0005.28,0004.08
2022-06-23 18:29:00,,0826.0,5.00,0.00,28.9,27.9,00.0,37.6,30.9,13.9,0000.0,0015.57,0005.30,0004.08
2022-06-23 18:30:00,,0826.0,5.01,0.00,28.9,27.9,00.0,37.6,30.9,14.0,0000.0,0016.16,0005.32,0004.08
2022-06-23 18:31:00,,0826.0,5.02,0.00,28.9,27.4,00.0,37.6,30.8,14.1,0000.0,0015.27,0005.33,0004.09
2022-06-23 18:32:00,,0826.0,4.99,0.00,28.9,27.0,00.0,37.5,30.7,14.1,0000.0,0016.09,0005.33,0004.09
2022-06-23 18:33:00,,0826.0,5.00,0.00,28.8,27.0,00.0,37.5,30.7,14.2,0000.0,0017.39,0005.36,0004.08
2022-06-23 18:34:00,,0826.0,5.00,0.00,28.8,27.1,00.0,37.5,30.7,14.2,0000.0,0018.11,0005.38,0004.08
2022-06-23 18:35:00,,0826.0,5.00,0.00,28.8,27.2,00.0,37.6,30.7,14.0,0000.0,0019.42,0005.44,0004.09
2022-06-23 18:36:00,,0825.9,5.00,0.00,28.8,27.4,00.0,37.6,30.8,13.9,0000.0,0020.04,0005.47,0004.09
2022-06-23 18:37:00,,0826.0,5.00,0.00,28.9,27.6,00.0,37.6,30.8,14.0,0000.0,0019.90,0005.52,0004.10
2022-06-23 18:38:00,,0825.9,4.99,0.00,28.9,27.8,00.0,37.6,30.9,13.4,0000.0,0019.53,0005.53,0004.09
2022-06-23 18:39:00,,0825.9,5.00,0.00,28.9,28.0,00.0,37.6,31.0,13.5,0000.0,0019.39,0005.49,0004.08
2022-06-23 18:40:00,,0825.9,5.01,0.00,28.9,27.8,00.0,37.6,30.9,13.8,0000.0,0019.20,0005.46,0004.07
2022-06-23 18:41:00,,0826.0,5.00,0.00,28.9,27.1,00.0,37.6,30.7,13.2,0000.0,0019.11,0005.39,0004.07
2022-06-23 18:42:00,,0825.7,5.00,0.00,28.8,26.9,00.0,37.5,30.7,12.7,0000.0,0018.96,0005.32,0004.07
2022-06-23 18:43:00,,0825.8,5.00,0.00,28.8,26.9,00.0,37.5,30.7,13.0,0000.0,0018.50,0005.29,0004.07
2022-06-23 18:44:00,,0825.9,5.00,0.00,28.8,27.0,00.0,37.5,30.7,14.2,0000.0,0017.95,0005.28,0004.10
2022-06-23 18:45:00,,0825.8,4.98,0.00,28.8,27.2,00.0,37.6,30.7,13.5,0000.0,0016.90,0005.28,0004.12
2022-06-23 18:46:00,,0825.9,5.01,0.00,28.8,27.4,00.0,37.6,30.8,13.4,0000.0,0015.93,0005.23,0004.12
2022-06-23 18:47:00,,0825.8,5.00,0.00,28.9,27.6,00.0,37.6,30.8,14.0,0000.0,0016.73,0005.22,0004.12
2022-06-23 18:48:00,,0825.9,5.00,0.00,28.9,27.8,00.0,37.6,30.9,13.6,0000.0,0017.18,0005.19,0004.13
2022-06-23 18:49:00,,0825.9,5.00,0.00,28.9,27.9,00.0,37.6,31.0,12.4,0000.0,0017.09,0005.13,0004.14
2022-06-23 18:50:00,,0825.8,5.00,0.00,28.9,27.5,00.0,37.6,30.8,11.9,0000.0,0015.55,0005.11,0004.15
2022-06-23 18:51:00,,0825.7,4.99,0.00,28.9,26.9,00.0,37.5,30.7,11.5,0000.0,0015.14,0005.13,0004.18
2022-06-23 18:52:00,,0825.7,5.00,0.00,28.8,26.9,00.0,37.5,30.6,11.8,0000.0,0013.91,0005.14,0004.20
2022-06-23 18:53:00,,0825.9,5.00,0.00,28.8,27.0,00.0,37.5,30.7,11.5,0000.0,0014.02,0005.22,0004.23
2022-06-23 18:54:00,,0825.9,5.01,0.00,28.8,27.1,00.0,37.5,30.7,11.8,0000.0,0014.18,0005.24,0004.25
2022-06-23 18:55:00,,0825.7,5.00,0.00,28.8,27.3,00.0,37.6,30.7,11.9,0000.0,0013.72,0005.21,0004.26
2022-06-23 18:56:00,,0825.8,4.99,0.00,28.8,27.5,00.0,37.6,30.8,11.9,0000.0,0013.07,0005.19,0004.28
2022-06-23 18:57:00,,0825.7,5.00,0.00,28.9,27.7,00.0,37.6,30.9,11.8,0000.0,0012.80,0005.20,0004.31
2022-06-23 18:58:00,,0825.7,5.00,0.00,28.9,27.9,00.0,37.6,31.0,11.5,0000.0,0010.97,0005.18,0004.34
2022-06-23 18:59:00,,0825.7,5.00,0.00,28.9,27.9,00.0,37.6,30.9,11.3,0000.0,0010.04,0005.15,0004.37
